Beach, ND

8:02 AM MDT on May 24, 2018 (GMT -0600)
Beach

Weather History for K20U - October, 2011

Change the Weather History Date:

Tuesday, October 4, 2011

  Actual Average (WUND) Record (WUND)
Temperature  
Mean Temperature 68 °F -  
Max Temperature 87 °F - - (-1)
Min Temperature 48 °F - - (-1)
Cooling Degree Days 2    
Growing Degree Days 18 (Base 50)    
Moisture  
Dew Point 45 °F    
Average Humidity 55    
Maximum Humidity 94    
Minimum Humidity 18    
Precipitation  
Precipitation 0.00 in - - ()
Sea Level Pressure  
Sea Level Pressure 29.81 in    
Wind  
Wind Speed 11 mph (SE)    
Max Wind Speed 25 mph    
Max Gust Speed 33 mph    
Visibility 10 miles    
Events      
Averages and records for this station are not official NWS values.
T = Trace of Precipitation, MM = Missing Value Source: NWS Daily Summary

Daily Weather History Graph

Daily Weather History Graph

Search for Another Location

Airport or City:

Astronomy

Oct. 04, 2011 Rise Set
Actual Time 6:58 AM MDT 6:30 PM MDT
Civil Twilight 6:28 AM MDT 7:00 PM MDT
Nautical Twilight 5:52 AM MDT 7:35 PM MDT
Astronomical Twilight 5:17 AM MDT 8:11 PM MDT
Moon 2:57 PM MDT (10/4) No Moon Set
Length of Visible Light 12h 32m
Length of Day
11h 31m
First Quarter, 56% of the Moon is Illuminated
Oct 4
First Quarter
Oct 11
Full
Oct 19
Last Quarter
Oct 26
New
Nov 2
First Quarter

Hourly Weather History & Observations

Time (MDT) Temp. Dew Point Humidity Pressure Visibility Wind Dir Wind Speed Gust Speed Precip Events Conditions
12:15 AM 55.4 °F 48.2 °F 77% 29.98 in 10.0 mi ESE 5.8 mph - N/A   Clear
12:35 AM 55.4 °F 48.2 °F 77% 29.97 in 10.0 mi ESE 9.2 mph - N/A   Clear
12:55 AM 53.6 °F 48.2 °F 82% 29.97 in 10.0 mi ESE 9.2 mph - N/A   Clear
1:15 AM 51.8 °F 46.4 °F 82% 29.96 in 10.0 mi Calm Calm - N/A   Clear
1:35 AM 53.6 °F 48.2 °F 82% 29.96 in 10.0 mi SE 4.6 mph - N/A   Clear
1:55 AM 53.6 °F 48.2 °F 82% 29.95 in 10.0 mi ESE 5.8 mph - N/A   Clear
2:15 AM 50.0 °F 46.4 °F 87% 29.95 in 10.0 mi SSE 6.9 mph - N/A   Clear
2:35 AM 48.2 °F 46.4 °F 93% 29.94 in 10.0 mi SE 5.8 mph - N/A   Clear
2:55 AM 48.2 °F 46.4 °F 93% 29.94 in 10.0 mi SSE 4.6 mph - N/A   Clear
3:15 AM 48.2 °F 46.4 °F 93% 29.93 in 10.0 mi ESE 3.5 mph - N/A   Clear
3:35 AM 48.2 °F 46.4 °F 93% 29.92 in 10.0 mi SE 4.6 mph - N/A   Clear
3:55 AM 48.2 °F 46.4 °F 93% 29.92 in 10.0 mi SE 4.6 mph - N/A   Clear
4:15 AM 50.0 °F 46.4 °F 87% 29.91 in 10.0 mi ESE 6.9 mph - N/A   Clear
4:35 AM 50.0 °F 46.4 °F 87% 29.89 in 10.0 mi ESE 8.1 mph - N/A   Clear
4:55 AM 50.0 °F 48.2 °F 94% 29.89 in 10.0 mi ESE 12.7 mph - N/A   Clear
5:15 AM 50.0 °F 46.4 °F 87% 29.89 in 10.0 mi ESE 8.1 mph - N/A   Clear
5:35 AM 48.2 °F 46.4 °F 93% 29.89 in 10.0 mi SE 9.2 mph - N/A   Clear
6:15 AM 50.0 °F 46.4 °F 87% 29.90 in 10.0 mi SE 11.5 mph - N/A   Clear
6:35 AM 50.0 °F 46.4 °F 87% 29.90 in 10.0 mi SE 5.8 mph - N/A   Clear
6:55 AM 50.0 °F 46.4 °F 87% 29.89 in 10.0 mi SE 10.4 mph - N/A   Clear
7:15 AM 50.0 °F 46.4 °F 87% 29.89 in 10.0 mi SE 11.5 mph - N/A   Clear
7:35 AM 51.8 °F 46.4 °F 82% 29.89 in 10.0 mi ESE 13.8 mph - N/A   Clear
8:15 AM 53.6 °F 48.2 °F 82% 29.88 in 10.0 mi SE 13.8 mph - N/A   Clear
8:35 AM 57.2 °F 48.2 °F 72% 29.87 in 10.0 mi SE 12.7 mph - N/A   Clear
8:55 AM 59.0 °F 48.2 °F 67% 29.87 in 10.0 mi SE 12.7 mph - N/A   Partly Cloudy
9:15 AM 60.8 °F 48.2 °F 63% 29.86 in 10.0 mi SE 15.0 mph - N/A   Partly Cloudy
9:35 AM 62.6 °F 48.2 °F 59% 29.86 in 10.0 mi SSE 12.7 mph - N/A   Clear
9:55 AM 66.2 °F 46.4 °F 49% 29.85 in 10.0 mi SE 15.0 mph 20.7 mph N/A   Clear
10:35 AM 69.8 °F 48.2 °F 46% 29.83 in 10.0 mi SE 13.8 mph - N/A   Clear
10:55 AM 71.6 °F 48.2 °F 43% 29.83 in 10.0 mi SE 16.1 mph - N/A   Clear
11:15 AM 73.4 °F 48.2 °F 41% 29.81 in 10.0 mi SE 13.8 mph - N/A   Clear
11:35 AM 75.2 °F 48.2 °F 38% 29.81 in 10.0 mi SE 17.3 mph 20.7 mph N/A   Clear
12:15 PM 80.6 °F 46.4 °F 30% 29.78 in 10.0 mi SE 21.9 mph 25.3 mph N/A   Clear
12:35 PM 82.4 °F 46.4 °F 28% 29.77 in 10.0 mi SSE 19.6 mph 31.1 mph N/A   Clear
1:15 PM 84.2 °F 46.4 °F 27% 29.75 in 10.0 mi SE 20.7 mph 31.1 mph N/A   Clear
1:55 PM 86.0 °F 42.8 °F 22% 29.72 in 10.0 mi South 20.7 mph 33.4 mph N/A   Clear
2:15 PM 87.8 °F 44.6 °F 22% 29.72 in 10.0 mi SSE 23.0 mph 32.2 mph N/A   Clear
2:35 PM 86.0 °F 42.8 °F 22% 29.71 in 10.0 mi SSE 24.2 mph 31.1 mph N/A   Clear
3:15 PM 87.8 °F 41.0 °F 19% 29.70 in 10.0 mi SSE 25.3 mph 28.8 mph N/A   Clear
3:35 PM 87.8 °F 41.0 °F 19% 29.69 in 10.0 mi SSE 24.2 mph 31.1 mph N/A   Clear
3:55 PM 87.8 °F 39.2 °F 18% 29.69 in 10.0 mi South 23.0 mph 28.8 mph N/A   Partly Cloudy
4:15 PM 87.8 °F 41.0 °F 19% 29.68 in 10.0 mi South 21.9 mph 31.1 mph N/A   Scattered Clouds
4:35 PM 87.8 °F 41.0 °F 19% 29.68 in 10.0 mi SSE 23.0 mph 28.8 mph N/A   Partly Cloudy
4:55 PM 86.0 °F 39.2 °F 19% 29.68 in 10.0 mi SSE 23.0 mph 28.8 mph N/A   Partly Cloudy
5:15 PM 84.2 °F 41.0 °F 22% 29.68 in 10.0 mi SE 16.1 mph 23.0 mph N/A   Partly Cloudy
5:35 PM 82.4 °F 41.0 °F 23% 29.68 in 10.0 mi SE 13.8 mph - N/A   Partly Cloudy
5:55 PM 80.6 °F 41.0 °F 24% 29.68 in 10.0 mi SE 13.8 mph - N/A   Partly Cloudy
6:15 PM 78.8 °F 39.2 °F 24% 29.67 in 10.0 mi SE 12.7 mph - N/A   Clear
6:35 PM 75.2 °F 39.2 °F 27% 29.67 in 10.0 mi SE 12.7 mph - N/A   Clear
6:55 PM 73.4 °F 39.2 °F 29% 29.68 in 10.0 mi SE 11.5 mph - N/A   Clear
7:15 PM 73.4 °F 39.2 °F 29% 29.67 in 10.0 mi SE 12.7 mph - N/A   Clear
7:35 PM 75.2 °F 41.0 °F 29% 29.67 in 10.0 mi SE 15.0 mph - N/A   Clear
7:55 PM 73.4 °F 41.0 °F 31% 29.67 in 10.0 mi SE 15.0 mph - N/A   Clear
8:35 PM 71.6 °F 42.8 °F 35% 29.66 in 10.0 mi SE 16.1 mph - N/A   Clear
8:55 PM 68.0 °F 42.8 °F 40% 29.66 in 10.0 mi SE 11.5 mph - N/A   Clear
9:15 PM 68.0 °F 42.8 °F 40% 29.66 in 10.0 mi SE 10.4 mph - N/A   Clear
9:35 PM 66.2 °F 44.6 °F 46% 29.66 in 10.0 mi SE 9.2 mph - N/A   Clear
9:55 PM 64.4 °F 44.6 °F 49% 29.65 in 10.0 mi SE 10.4 mph - N/A   Clear
10:15 PM 62.6 °F 44.6 °F 52% 29.65 in 10.0 mi SSE 9.2 mph - N/A   Clear
10:35 PM 60.8 °F 44.6 °F 55% 29.64 in 10.0 mi SSE 10.4 mph - N/A   Clear
10:55 PM 62.6 °F 44.6 °F 52% 29.64 in 10.0 mi SSE 11.5 mph - N/A   Clear
11:15 PM 64.4 °F 44.6 °F 49% 29.64 in 10.0 mi SSE 12.7 mph - N/A   Clear
11:35 PM 62.6 °F 44.6 °F 52% 29.63 in 10.0 mi SE 10.4 mph - N/A   Clear